Theta_e
307 307 307 308 308 307 306 307 307 307 309 309 309 310 309 310 310 310 310 309 310 311 312 312 312 313 313 317 327 336 339 340 340 340 341 341 341 341 341 341 341 339 335 337 340 340 340 341 342 343 343 343 344 343 342 340 336 331 326 323 323 321 318 316 319 323 326 329 331 330 332 334 333 334 335 334 333 333 333 332 331 332 335 335 333 331
307 308 308 307 307 307 306 307 307 307 308 309 309 309 309 310 309 309 310 309 309 311 312 311 312 313 313 315 323 332 337 338 339 339 339 340 340 341 341 341 340 339 338 339 339 339 340 341 342 342 343 343 343 343 342 340 335 329 328 332 332 328 321 318 319 322 323 325 328 331 334 334 333 335 335 334 334 333 333 331 330 333 336 336 332 330
307 308 307 306 306 306 305 306 308 308 308 309 310 310 310 310 309 310 310 309 309 311 313 311 312 313 315 319 324 330 335 338 339 339 339 340 340 340 341 340 340 340 339 339 339 338 339 340 341 341 342 343 343 343 342 339 335 330 332 337 336 331 325 324 325 324 320 318 326 333 334 333 333 335 335 335 335 334 334 331 329 334 336 334 331 329
308 308 307 306 305 305 306 306 307 308 308 309 309 310 310 308 309 310 310 310 309 311 312 311 312 312 317 322 325 330 336 338 338 338 339 339 340 340 340 340 339 339 339 338 338 339 338 339 340 340 341 343 343 343 342 339 335 332 334 337 337 332 328 327 327 326 320 318 327 335 335 334 334 334 335 335 335 335 333 331 331 335 335 332 329 328
307 307 306 306 305 306 306 306 307 309 309 309 308 310 310 309 310 310 310 310 309 310 311 311 312 312 316 322 324 328 333 336 336 337 337 337 338 339 339 339 338 338 338 337 338 338 338 338 340 340 340 342 343 343 341 340 337 334 335 337 336 332 328 325 326 327 323 323 331 336 335 336 335 335 335 335 335 335 333 333 334 335 334 331 329 327
306 306 306 306 306 306 306 306 307 309 309 309 308 309 309 309 310 310 310 311 311 311 310 311 312 312 316 319 322 328 330 332 334 335 336 337 337 338 338 338 338 338 337 337 338 338 337 338 339 340 340 341 342 342 341 340 339 337 336 337 336 332 329 327 327 327 324 328 334 335 335 336 335 335 335 334 335 334 333 334 336 335 333 331 329 329
306 306 306 306 306 306 306 306 307 309 309 309 309 308 308 309 309 309 310 311 311 311 310 311 311 312 315 316 321 328 329 331 331 332 335 337 337 337 337 338 338 337 337 337 337 338 338 337 338 339 340 340 341 342 341 340 339 339 337 338 336 334 332 330 330 330 329 333 336 335 335 335 334 335 335 335 335 334 333 335 336 335 333 331 330 331
307 306 306 306 306 306 307 307 307 308 309 310 309 307 308 308 309 310 310 311 311 312 311 310 311 312 312 316 324 327 329 331 331 330 333 335 336 337 337 338 338 337 337 337 336 337 337 338 338 339 339 339 340 342 341 340 340 339 339 338 337 335 334 333 334 334 334 335 336 335 335 335 335 335 334 333 333 333 335 336 335 334 333 331 330 331
307 307 306 307 307 307 307 307 306 307 309 309 307 307 308 308 309 310 310 311 311 311 312 311 312 312 310 317 326 328 328 330 331 330 331 333 335 336 336 337 337 337 337 336 336 337 337 338 337 338 339 339 340 341 341 341 340 340 339 338 338 337 335 334 334 335 335 335 336 336 335 335 335 334 334 333 331 333 336 336 334 333 332 331 331 332
307 308 307 307 308 307 307 307 306 307 308 308 307 307 308 308 309 310 310 311 311 312 312 312 312 311 311 317 328 331 329 329 330 330 331 333 334 334 335 336 336 336 336 336 336 336 337 337 337 338 338 338 339 339 341 341 341 341 340 337 337 337 336 335 335 335 335 335 336 336 335 335 334 332 333 334 332 334 335 335 334 333 332 331 332 332
306 308 307 307 308 308 307 306 307 308 307 307 307 308 308 308 309 310 310 310 311 312 313 312 312 311 311 316 326 331 330 329 329 329 330 332 333 334 334 335 336 336 336 336 335 335 336 337 337 338 338 338 338 338 339 340 340 340 339 337 337 337 336 335 335 336 336 335 336 336 335 335 332 331 333 334 335 334 332 333 334 333 332 332 332 332
306 307 307 307 309 308 307 306 307 308 307 307 309 309 309 309 309 310 310 310 311 312 312 311 311 312 311 314 320 327 329 328 327 327 328 331 333 333 334 335 335 335 336 336 335 334 335 337 337 338 338 338 337 336 337 338 339 339 338 337 336 335 336 336 336 336 336 336 336 336 336 334 331 331 332 334 335 333 331 331 332 332 332 332 332 330
307 306 306 307 309 309 308 307 307 307 307 308 309 310 310 310 310 310 311 311 311 312 311 309 310 312 312 313 317 320 324 327 328 328 328 329 332 334 334 335 335 335 335 335 334 334 335 336 337 337 338 337 336 336 336 337 338 338 337 337 335 335 336 336 336 335 335 336 336 336 335 331 329 331 332 333 334 333 332 332 331 332 333 332 331 328
307 306 306 307 309 309 309 308 307 307 307 308 309 310 311 310 311 311 310 311 311 312 310 308 310 312 312 313 316 316 318 323 326 329 329 330 332 333 334 334 335 335 334 334 334 335 334 335 337 337 337 337 336 336 336 336 337 337 337 337 336 335 335 336 336 335 336 336 336 336 334 331 330 332 332 332 331 331 332 332 332 333 333 332 330 327
308 307 307 307 308 309 310 309 308 308 307 308 309 310 310 310 311 311 310 311 312 312 311 309 311 312 312 315 318 318 321 325 325 325 328 331 331 332 333 334 335 335 334 334 335 335 334 335 336 337 337 337 336 336 336 336 336 337 337 337 336 335 335 336 336 336 336 336 335 335 334 332 332 332 333 331 329 331 333 332 332 333 333 331 329 327
308 307 306 307 308 309 310 309 308 308 307 307 308 309 310 311 311 311 311 312 313 313 312 311 312 313 314 316 319 321 325 329 328 327 328 331 332 332 334 335 335 335 334 334 334 334 334 335 336 337 337 337 337 336 337 337 336 337 337 336 335 336 336 336 336 335 334 335 335 334 334 333 332 332 333 332 331 333 334 333 333 333 332 330 329 328
308 307 306 306 307 308 310 309 308 309 309 307 308 309 309 310 312 312 311 312 313 312 312 312 312 313 313 315 323 327 329 330 330 330 330 334 334 334 335 336 335 335 335 334 334 334 334 336 337 337 337 336 337 337 337 337 337 336 337 336 336 336 335 335 335 335 334 335 334 333 334 333 332 332 332 331 332 334 333 333 333 332 331 330 329 329
308 307 306 307 307 308 310 310 308 309 309 308 308 309 309 309 311 313 312 311 312 312 313 312 312 312 312 313 324 331 331 332 332 331 333 334 335 336 336 336 335 335 335 334 334 334 335 336 337 336 336 336 336 337 337 337 337 337 337 337 336 335 334 335 335 333 333 333 333 334 333 332 332 333 331 331 333 334 334 333 332 331 331 329 329 328
308 308 307 307 307 307 309 310 309 308 308 308 309 309 310 310 310 311 312 313 312 312 313 313 313 313 312 313 320 326 330 335 334 331 332 333 335 336 336 336 335 334 334 334 334 335 336 336 336 336 336 335 336 337 337 338 337 337 337 336 335 334 335 336 334 330 328 330 333 334 332 331 333 333 332 333 334 334 333 333 332 331 330 329 329 327
308 309 307 307 307 307 308 310 310 309 308 308 310 309 309 311 311 311 313 314 313 312 313 314 314 313 313 315 317 320 328 335 335 332 332 333 335 336 336 335 334 334 335 334 335 335 336 336 336 335 335 335 336 336 337 338 337 337 337 336 335 335 335 335 333 327 322 325 331 332 331 331 333 334 333 333 333 333 333 333 332 331 330 329 329 326
308 309 308 307 307 307 308 310 310 310 309 308 309 309 309 310 310 311 312 312 312 313 313 313 314 313 315 321 319 318 326 333 335 334 333 334 336 335 335 335 334 334 334 334 335 335 335 336 335 335 335 335 336 336 337 337 337 336 336 336 337 336 334 334 332 326 320 323 329 330 331 333 334 334 334 332 332 332 332 332 331 330 329 329 328 325
307 309 309 308 307 308 309 309 309 310 310 310 310 309 310 311 310 311 311 311 311 313 313 313 313 313 319 324 322 321 325 328 332 333 332 334 335 334 334 335 334 334 334 334 335 335 335 335 335 335 335 335 336 336 337 336 335 335 335 335 337 336 334 334 333 328 323 325 330 332 334 335 334 334 333 332 333 332 332 332 331 330 329 328 326 324
309 310 309 308 308 308 308 308 309 309 309 309 310 309 310 312 311 310 311 312 312 312 313 313 313 314 321 322 321 323 324 326 330 333 333 333 334 334 334 334 334 334 334 334 335 335 335 335 335 335 335 335 336 336 336 336 334 334 334 334 336 337 335 334 333 329 327 329 333 334 335 335 334 334 333 332 332 332 332 331 330 329 328 327 325 324
310 309 309 308 308 307 307 307 309 309 309 308 309 309 309 311 312 312 313 314 313 311 313 313 312 315 319 318 320 323 322 326 331 332 333 334 333 334 333 334 334 333 334 334 334 335 335 335 335 335 334 335 335 336 335 335 335 335 335 334 335 336 335 335 333 329 329 333 335 335 334 334 334 333 333 332 332 331 331 331 330 329 327 326 325 323
310 310 310 309 309 308 307 308 309 308 309 310 309 309 309 310 312 313 315 314 313 313 313 312 313 315 318 319 323 326 324 328 331 331 333 334 333 333 332 333 334 333 333 334 334 335 335 335 335 334 335 335 335 336 335 335 335 335 335 334 334 335 335 335 333 330 330 333 334 334 335 334 334 333 332 332 332 332 331 330 329 328 327 325 324 323
311 312 312 310 310 310 309 309 309 309 309 310 309 308 309 310 311 313 315 312 312 314 313 312 312 315 319 323 327 330 329 330 331 330 332 333 332 333 332 333 333 332 333 333 334 335 335 335 335 334 335 335 335 336 335 334 334 334 335 334 334 334 334 334 334 332 332 334 335 334 335 334 333 333 332 331 332 332 331 330 329 327 326 324 323 323
313 313 312 312 311 310 310 310 309 310 310 310 309 309 308 310 312 316 315 312 313 315 313 314 317 317 318 323 328 330 330 331 331 330 332 332 332 332 332 333 333 332 332 333 335 336 335 334 335 334 335 336 336 336 335 334 334 334 335 335 334 334 333 334 334 333 333 335 335 335 334 334 333 333 332 331 331 331 330 329 328 327 325 324 323 323
313 311 312 314 312 310 310 311 309 309 310 309 309 309 309 309 312 315 316 316 317 315 313 320 325 319 316 321 326 330 330 330 330 331 331 331 331 332 332 332 332 332 333 333 334 336 336 334 334 335 335 335 335 335 335 335 335 335 336 335 335 334 333 333 334 333 334 334 334 335 335 334 334 333 332 331 331 330 330 329 327 326 325 324 323 323
311 310 312 313 312 311 310 310 310 309 309 309 310 310 310 310 313 314 316 319 319 314 315 325 328 321 316 322 328 328 328 330 331 331 331 331 331 331 331 331 332 333 333 333 334 335 335 335 334 335 335 335 336 335 334 334 334 335 336 336 335 334 333 334 334 333 334 334 333 335 334 334 333 332 331 331 330 330 329 328 327 325 325 324 323 323
310 310 313 313 312 314 313 311 311 310 309 310 310 311 310 311 313 314 316 320 320 317 321 328 330 326 322 323 326 325 326 329 332 330 330 331 331 331 331 332 332 332 333 333 334 334 335 335 334 334 335 336 337 337 334 333 332 333 334 334 333 334 334 334 334 334 334 334 334 334 334 333 333 331 331 331 330 330 328 327 326 325 324 323 323 322
310 311 315 315 312 314 315 313 311 309 309 311 311 311 311 312 313 314 316 318 317 317 323 327 328 327 325 323 323 324 326 328 330 330 330 330 331 331 331 331 331 331 333 333 334 334 335 335 335 334 334 335 337 338 336 335 334 333 333 332 332 334 334 333 333 333 334 333 333 334 334 333 332 332 331 330 330 329 327 326 325 324 323 323 322 322
310 311 314 314 312 314 315 314 312 310 311 312 311 312 312 312 313 314 315 316 315 317 324 324 320 319 324 325 324 325 327 330 330 330 331 330 330 331 331 331 332 331 332 333 334 334 334 335 335 334 333 334 336 338 337 335 335 335 335 335 333 332 332 332 332 333 333 333 333 333 333 333 332 332 331 330 329 328 326 326 325 323 323 322 322 321
311 312 312 312 313 314 313 313 312 310 310 311 312 314 313 313 314 314 315 317 318 319 321 318 315 321 326 326 330 330 328 330 331 331 331 330 330 331 331 331 332 332 332 333 334 334 334 335 335 335 334 333 334 337 336 336 337 336 336 336 334 332 332 332 331 332 332 331 332 333 333 333 332 331 331 330 329 328 326 325 323 322 322 322 321 321
314 314 311 311 313 313 312 312 312 311 310 311 314 315 315 315 315 314 315 317 318 318 320 319 321 328 325 325 333 335 329 330 331 330 330 331 331 331 332 332 332 332 332 333 334 334 334 334 334 334 334 333 332 332 333 334 335 336 337 337 334 333 334 333 332 332 332 331 332 333 333 332 332 331 330 329 328 327 326 324 322 321 321 321 321 320
315 314 311 311 313 312 312 312 311 311 311 314 315 314 316 317 317 316 317 319 318 319 323 323 323 327 328 327 330 332 330 329 330 330 330 330 331 332 332 332 332 332 332 333 334 334 334 333 333 333 333 333 332 332 331 331 332 333 335 336 334 332 333 333 332 332 333 333 333 332 331 331 331 330 329 329 328 327 326 324 321 321 321 320 320 319
314 313 312 312 311 309 311 311 311 312 315 317 317 314 314 315 315 315 316 318 320 319 319 322 322 323 326 328 327 328 329 329 329 330 331 331 331 332 332 332 333 332 332 333 334 334 334 333 333 333 332 332 332 333 333 332 332 332 332 333 332 331 332 332 331 331 332 333 332 331 330 330 330 329 329 328 328 327 326 324 321 320 320 320 319 319
314 314 313 313 311 310 312 313 314 316 319 321 320 319 317 316 316 317 315 317 324 320 316 322 327 325 325 328 327 328 329 330 333 333 331 331 332 331 332 332 331 331 332 332 333 333 334 334 333 333 332 331 331 333 333 333 333 334 334 333 333 332 332 333 332 331 331 332 332 330 328 329 330 329 329 329 328 327 326 324 321 320 319 319 318 318
314 314 313 314 312 312 315 318 318 320 321 321 320 319 318 318 319 319 317 315 323 320 316 322 328 327 326 328 328 329 330 335 341 338 332 331 332 332 332 332 331 331 331 332 332 332 332 333 333 333 332 331 331 332 333 333 332 332 333 334 334 333 333 332 332 331 331 332 332 330 328 329 330 329 329 329 328 327 325 323 320 319 319 319 318 317
313 313 312 313 313 313 316 319 318 319 320 321 321 319 318 318 318 318 314 313 320 319 317 320 325 326 327 329 330 330 330 332 337 334 330 331 332 332 333 332 332 332 332 331 332 331 331 332 333 332 332 332 332 331 331 332 332 333 332 333 334 333 333 332 331 331 330 331 331 330 329 329 329 329 328 328 327 327 324 321 319 319 318 318 317 317
314 312 311 313 313 313 316 317 316 318 320 321 320 320 318 316 316 315 312 314 319 319 317 320 324 326 327 329 330 331 329 327 329 328 327 331 332 332 333 333 332 333 332 332 332 332 332 332 332 333 333 332 333 332 331 331 332 333 333 332 332 332 332 331 331 330 330 330 330 330 330 329 328 328 327 327 327 325 322 320 319 318 317 317 317 317
313 310 309 313 314 314 317 318 318 320 321 320 320 320 318 315 314 313 313 315 317 319 321 321 322 324 327 329 330 329 327 325 326 326 329 331 332 333 333 333 333 333 333 333 333 332 333 332 332 333 333 332 332 333 333 333 332 332 332 332 332 331 331 331 330 329 329 330 329 330 330 328 327 327 327 326 325 323 320 319 318 317 317 316 316 316
312 310 309 312 314 313 315 319 320 320 319 319 320 319 316 315 314 316 319 319 319 322 324 323 321 323 326 329 329 327 325 324 324 326 329 331 332 333 333 333 334 334 333 333 333 333 333 333 333 333 332 332 332 332 333 334 333 333 333 332 331 331 331 330 330 329 329 329 329 329 328 328 327 326 325 324 323 320 319 318 317 316 316 315 315 315
310 311 312 312 311 312 315 318 321 321 320 318 320 321 319 319 319 320 320 323 324 324 324 323 322 322 325 328 328 326 325 324 323 324 328 330 331 332 332 333 333 333 333 333 332 332 332 332 332 332 331 332 332 332 333 334 334 334 333 331 329 329 329 329 329 328 327 328 328 328 328 328 326 324 323 323 321 319 318 318 317 316 315 315 315 315
311 312 313 312 311 314 318 320 321 321 320 318 320 323 322 322 322 321 322 324 325 324 323 323 322 322 325 328 328 326 325 324 322 323 326 329 331 331 332 333 333 333 333 333 332 332 331 331 330 330 331 331 331 331 332 332 333 333 332 329 328 327 328 327 327 327 327 327 328 328 328 327 324 322 321 321 320 319 318 317 316 315 315 316 315 314
315 313 314 316 314 315 319 321 320 319 319 318 319 320 321 321 322 322 322 322 323 324 323 322 322 323 325 328 329 327 324 324 324 324 325 328 330 331 332 332 333 333 333 333 332 331 330 330 330 330 330 331 331 331 331 331 331 332 331 330 329 328 327 326 326 327 326 326 327 328 327 325 323 321 321 320 319 318 318 317 316 315 315 315 315 314
315 312 315 319 320 318 319 320 320 319 319 318 318 318 319 320 322 322 322 323 324 324 324 323 323 324 326 328 329 327 325 325 325 325 326 329 331 331 332 333 333 333 333 333 332 331 329 329 329 329 330 330 330 330 330 330 331 331 330 330 329 328 326 325 326 326 326 326 326 326 325 323 322 321 320 318 317 317 317 317 316 315 315 315 314 314
314 313 316 321 321 320 321 322 320 319 318 317 318 319 319 320 321 322 324 325 325 325 325 325 325 325 326 328 329 327 325 325 326 327 328 330 331 332 332 333 332 333 332 332 331 330 329 328 328 328 329 329 330 329 329 330 329 329 329 329 328 326 325 325 325 325 326 326 325 324 323 323 322 320 319 318 317 316 316 316 316 315 315 314 314 314
315 315 318 320 320 319 321 321 318 318 317 317 318 319 319 320 322 324 325 326 326 326 326 326 326 327 328 329 329 328 326 326 327 329 330 331 332 333 333 333 333 332 331 331 331 330 329 328 328 328 328 328 329 329 329 329 329 328 328 327 326 326 325 324 324 324 325 325 324 323 323 322 321 320 319 317 316 315 316 316 315 315 314 314 314 314
315 316 317 318 320 320 320 320 319 320 320 319 318 319 319 320 323 324 325 326 326 327 327 327 327 327 328 328 328 327 327 329 330 331 332 332 333 333 332 331 331 331 330 330 331 330 329 328 328 328 328 328 329 329 328 328 328 327 327 326 326 325 324 323 323 323 323 323 323 323 322 321 321 320 319 317 316 315 316 316 315 315 314 314 314 313
317 318 316 318 322 323 321 321 321 322 322 320 318 319 320 321 322 324 325 325 326 326 327 327 327 328 328 328 328 328 328 331 332 332 332 331 331 330 330 330 330 330 330 329 329 328 328 328 328 327 328 328 328 328 327 327 327 327 326 324 324 324 324 323 323 323 323 323 323 322 322 321 320 319 318 317 316 316 316 315 315 315 314 314 314 313
317 318 316 318 321 320 319 319 320 320 320 318 317 319 320 321 321 323 323 325 326 326 327 327 328 328 328 328 328 329 329 330 330 330 329 329 328 329 329 329 328 328 328 328 328 327 326 326 327 326 327 327 326 326 326 326 326 325 324 324 323 323 323 323 323 323 322 323 322 322 321 320 319 318 317 316 316 316 316 315 315 315 314 314 314 312
Wind_Speed
11 7 8 10 10 10 11 11 3 3 9 12 10 8 8 9 6 4 4 3 8 9 10 12 13 15 10 8 11 14 16 17 16 16 14 15 18 19 20 21 21 23 25 19 16 21 25 26 27 26 24 23 24 25 25 25 25 23 23 24 24 23 23 23 24 24 24 24 22 22 23 22 19 17 15 14 12 9 6 4 3 4 4 5 5 5
10 10 10 8 6 9 12 11 5 4 8 10 11 9 7 8 5 5 6 4 6 7 7 9 12 16 10 8 9 12 14 16 18 19 18 19 20 20 21 23 23 23 20 16 18 22 24 26 28 27 26 24 25 27 26 26 25 24 25 24 23 23 23 24 24 24 23 23 22 22 23 21 18 16 15 13 10 7 5 4 4 4 4 5 5 6
10 10 8 7 7 10 13 13 7 5 7 7 9 9 6 5 3 4 4 2 6 6 4 7 11 14 7 5 6 12 15 17 21 22 21 22 23 23 23 23 23 21 18 17 17 20 24 27 28 29 28 26 26 27 28 27 26 27 27 24 23 23 24 24 23 22 22 22 22 22 21 18 16 16 15 12 9 6 5 5 4 4 4 5 5 6
8 7 8 8 9 13 14 15 10 5 5 4 6 9 6 4 4 5 4 3 4 2 1 7 9 8 3 4 3 11 15 16 19 21 20 20 22 23 23 21 20 21 22 20 17 17 23 26 27 29 29 27 27 28 30 30 29 28 27 26 23 23 24 24 23 22 21 22 23 22 19 17 17 16 14 12 9 8 6 5 5 5 5 5 6 6
4 4 11 10 11 15 15 17 14 7 4 2 3 6 6 6 4 2 3 3 3 1 2 6 5 5 3 5 4 7 11 13 16 19 20 21 22 21 20 19 20 22 24 23 19 17 20 25 27 27 29 28 28 30 31 31 31 29 27 26 24 24 24 24 23 20 19 23 25 23 20 18 17 15 14 13 11 9 6 6 6 6 6 6 6 5
3 4 12 13 11 15 15 15 16 11 6 3 3 4 6 9 6 2 3 4 5 5 3 3 6 4 3 6 6 5 8 13 14 17 21 23 22 21 21 23 23 23 22 21 17 16 19 23 25 26 28 29 28 31 32 31 32 30 27 26 25 25 25 25 23 21 22 26 26 23 21 20 18 16 14 13 11 9 7 7 7 7 7 6 5 5
3 3 9 13 13 15 15 13 15 13 7 4 4 5 4 6 6 4 3 5 6 5 2 1 7 4 2 5 5 6 9 13 13 14 19 21 21 22 25 25 23 22 22 19 17 16 19 22 25 26 27 29 29 31 33 32 32 31 28 27 27 27 27 26 26 27 28 28 26 23 21 18 16 14 13 12 11 9 9 8 8 8 7 6 5 5
8 7 8 13 14 13 13 10 12 14 9 4 4 7 7 5 5 5 3 3 1 1 2 1 4 4 4 4 2 5 8 9 11 14 16 19 22 24 25 24 22 22 20 18 18 18 19 22 25 25 26 28 29 30 33 33 33 32 30 30 30 29 29 28 28 30 28 26 23 21 19 17 14 12 12 12 11 9 9 8 8 8 7 5 5 5
11 11 7 12 13 10 9 8 10 14 9 3 4 8 7 5 4 3 2 2 2 1 5 4 4 5 6 2 3 4 7 8 12 16 16 17 21 24 24 23 22 20 19 17 18 18 18 21 23 24 25 26 29 31 33 34 33 33 32 33 33 32 32 30 28 28 25 22 22 21 19 16 14 12 11 11 12 11 9 9 9 8 6 5 5 6
8 12 9 10 11 8 8 9 12 15 8 4 7 7 5 3 3 1 1 1 1 3 7 7 6 7 5 3 4 4 6 10 11 12 13 16 20 22 23 24 23 21 19 17 18 18 19 22 23 24 23 24 28 30 33 34 34 34 33 32 32 32 31 30 28 27 23 20 21 21 18 15 13 13 12 11 11 9 8 9 10 8 6 5 5 6
3 11 11 7 7 7 9 10 13 15 9 9 10 7 5 3 1 1 1 0 2 5 5 7 6 5 5 3 5 6 6 8 8 7 10 14 18 21 22 24 22 21 19 17 18 20 20 22 24 24 23 23 26 29 32 34 35 35 32 27 26 25 25 27 28 26 23 20 21 20 16 12 12 14 13 11 10 9 7 9 10 8 7 5 5 7
2 8 8 6 9 10 10 10 12 13 10 11 10 7 6 3 1 2 1 1 5 5 3 5 6 5 7 4 4 8 7 7 9 9 10 12 18 22 23 22 20 20 19 17 19 22 20 21 23 23 23 22 25 28 30 33 34 32 27 24 22 19 20 25 26 24 23 21 22 20 15 12 12 14 13 11 10 9 8 9 9 8 7 5 6 7
3 5 5 6 13 15 11 10 9 8 9 11 10 9 8 6 4 5 5 4 5 3 1 3 6 5 7 5 5 9 9 9 10 10 11 12 15 18 18 18 19 19 20 19 21 22 22 23 23 23 23 22 25 28 29 31 32 27 23 21 20 19 21 23 25 25 24 24 23 19 15 13 14 13 12 11 9 8 7 7 8 7 6 5 6 7
4 3 5 9 12 15 14 12 9 8 9 12 11 12 10 7 7 7 6 3 3 3 1 1 4 3 4 5 8 12 12 10 12 13 15 12 10 13 15 17 19 20 20 22 23 24 24 25 25 24 23 23 25 27 27 27 27 24 22 21 20 21 22 22 24 27 26 25 22 16 13 13 14 13 11 10 9 8 7 6 7 6 5 5 6 6
8 4 8 10 8 14 17 10 7 7 7 7 5 7 7 4 5 5 4 4 3 3 2 2 3 4 4 3 4 7 7 6 10 14 15 12 10 11 14 17 19 20 21 23 24 24 25 26 26 24 23 23 24 24 24 24 24 24 23 22 21 22 22 21 25 26 24 21 17 13 12 12 13 12 11 11 11 9 7 6 7 6 5 6 5 5
8 3 6 8 4 14 16 5 6 10 7 4 2 5 6 4 3 2 1 2 3 2 3 3 3 2 3 2 0 2 4 5 7 10 11 11 11 13 16 19 21 22 23 23 25 26 25 25 25 23 21 22 23 23 23 23 23 24 24 22 20 20 21 21 23 22 19 17 14 12 12 13 14 12 10 12 13 11 9 7 8 7 6 6 5 5
7 3 7 10 5 11 15 8 8 11 7 4 5 7 4 2 4 3 1 2 1 4 3 2 4 4 4 5 1 2 4 4 3 6 9 10 13 16 17 19 21 22 23 24 25 26 25 24 24 24 23 23 23 24 23 22 22 23 25 23 20 19 19 19 20 19 16 15 13 12 14 15 15 12 11 12 13 12 11 9 9 8 7 5 4 5
5 4 7 12 9 9 14 14 10 7 6 6 7 7 4 3 1 1 2 2 3 6 3 2 6 6 5 4 2 2 4 5 4 5 7 9 13 16 16 18 20 21 21 22 23 23 23 22 23 25 25 25 25 25 23 20 20 21 23 22 21 20 20 20 21 19 16 15 14 15 17 16 13 13 14 14 13 13 12 11 9 8 7 5 5 5
4 4 5 11 11 8 11 13 9 6 5 5 6 5 3 4 4 2 2 4 5 4 2 3 4 4 6 6 3 3 6 7 5 6 8 10 14 15 16 18 19 20 21 21 22 23 22 22 24 26 26 24 24 24 21 18 18 19 21 22 21 19 19 20 21 21 19 17 16 17 17 15 13 14 16 16 15 13 12 10 9 8 6 4 4 4
3 3 4 9 9 9 9 10 10 8 3 2 7 6 2 2 4 3 1 2 5 4 2 3 3 3 6 6 8 8 7 6 6 8 9 12 15 15 16 19 20 21 22 21 23 24 23 23 25 27 26 24 23 22 20 19 18 18 20 21 19 18 19 21 20 20 20 18 17 17 17 15 15 17 17 16 16 14 12 10 9 8 6 4 5 4
1 1 4 7 7 8 9 9 10 12 8 6 9 8 4 2 2 2 1 0 2 3 3 3 3 4 4 4 9 10 4 5 8 8 8 9 11 12 14 17 20 21 21 21 22 23 23 24 25 27 26 25 22 20 19 20 19 19 20 21 19 19 21 21 20 20 19 18 18 18 17 17 18 19 18 17 16 14 12 11 10 8 6 5 5 4
2 1 4 7 7 7 7 5 7 12 12 9 7 7 6 4 4 6 5 1 0 0 2 2 2 4 3 2 5 5 1 3 7 7 6 7 10 12 13 16 18 19 19 20 21 22 23 24 26 27 26 24 22 20 20 20 20 21 22 22 20 20 22 22 21 20 19 19 18 18 18 18 19 20 19 18 16 14 13 12 10 9 7 6 5 4
2 1 3 5 5 4 4 6 9 12 11 8 6 7 6 4 5 8 7 3 2 1 1 1 1 2 1 1 2 2 0 3 5 7 7 8 11 14 14 16 17 17 17 17 19 21 22 24 26 27 26 23 22 22 22 21 22 23 23 22 21 22 23 23 22 21 20 20 19 18 19 19 20 20 19 18 17 15 15 13 11 9 8 6 4 6
3 1 3 6 5 2 3 4 9 11 10 8 7 8 8 6 5 5 4 2 4 3 2 2 2 1 1 2 2 2 2 2 3 6 8 9 12 15 16 16 16 16 16 17 19 22 23 24 25 26 25 24 23 24 24 24 24 23 23 22 22 22 24 24 22 22 22 22 20 19 20 19 19 20 19 18 17 16 16 14 12 10 9 7 5 7
4 1 3 7 7 4 4 5 8 11 11 9 6 7 9 6 4 3 2 3 5 4 2 3 3 1 1 1 1 1 2 2 3 6 9 11 13 15 17 17 16 16 18 19 20 23 25 25 25 25 24 24 25 25 25 25 26 26 25 24 23 23 24 24 23 23 24 23 22 21 21 20 20 20 20 19 18 18 16 15 12 10 9 8 6 8
3 1 2 6 8 8 7 5 6 8 9 7 6 9 11 10 8 5 3 4 6 3 3 5 5 2 1 0 1 2 3 3 4 6 10 11 13 15 17 17 17 19 21 22 22 24 26 25 24 23 23 24 25 26 26 25 27 27 26 25 24 23 24 24 23 23 24 24 23 22 22 22 22 21 21 20 19 18 17 15 13 11 10 8 7 9
2 1 1 3 6 7 5 3 5 8 9 8 8 11 12 10 8 4 3 5 5 4 4 7 5 4 6 2 1 1 2 3 4 7 10 11 13 16 17 18 19 21 23 23 23 25 26 25 23 23 24 25 26 26 25 24 25 28 27 26 25 24 23 24 23 23 25 25 23 22 22 22 22 21 21 19 18 18 17 15 13 11 10 8 8 11
0 0 1 1 2 2 1 2 7 13 12 9 10 11 10 8 7 5 4 4 4 5 5 5 2 3 9 5 1 0 3 4 5 7 9 11 15 17 18 19 20 21 23 24 24 24 25 25 24 24 25 25 26 27 25 23 24 27 28 26 25 24 23 23 23 23 23 24 24 23 22 23 22 21 20 19 19 18 17 15 13 11 10 9 9 12
1 1 1 2 2 3 3 2 5 13 13 10 12 13 11 9 9 8 5 3 5 5 3 2 5 7 9 4 1 1 4 6 7 9 10 12 16 18 19 20 21 22 23 25 25 25 25 25 25 25 25 24 26 28 26 24 25 27 27 27 26 25 23 21 22 22 21 21 23 24 23 22 22 21 20 19 19 18 16 15 13 12 12 12 12 13
2 1 1 2 3 4 4 4 4 10 13 12 13 14 13 11 11 10 7 4 4 3 1 1 4 7 7 3 1 1 3 6 8 11 12 14 16 18 19 21 22 21 22 24 26 26 25 25 25 25 25 24 25 28 28 25 26 27 28 28 26 25 23 21 21 23 22 21 22 23 22 22 22 22 21 20 20 19 16 14 13 13 14 15 15 15
2 2 1 1 2 3 2 5 6 8 12 13 12 13 14 12 11 10 6 3 2 4 1 2 2 6 4 2 1 1 3 7 9 12 15 16 18 19 19 21 20 20 21 23 25 26 24 24 25 25 26 25 25 29 29 25 25 26 25 25 25 25 25 23 23 24 23 22 23 23 22 22 23 23 22 21 20 19 16 14 13 14 15 16 17 18
2 2 1 1 2 1 1 5 8 7 8 10 11 12 13 12 9 7 4 4 5 6 3 3 5 5 1 0 1 1 5 7 9 13 16 17 19 21 21 21 21 21 22 23 25 27 26 26 27 27 28 27 26 27 27 26 29 30 27 25 24 24 24 23 23 24 24 24 25 25 24 23 24 25 24 23 20 19 17 14 13 15 17 18 19 19
1 1 1 2 2 1 2 4 9 8 5 6 7 10 13 11 8 5 2 4 7 5 4 5 6 3 1 2 3 4 6 7 8 13 16 18 21 21 21 21 21 22 23 23 25 26 26 26 27 28 29 29 28 26 25 28 32 33 32 27 23 23 24 23 22 23 24 24 25 26 26 26 26 26 25 22 20 18 15 13 14 16 17 18 20 20
1 0 1 1 1 2 2 6 10 8 6 4 1 4 8 9 10 10 8 8 8 5 2 3 3 1 1 5 5 5 7 7 9 14 16 17 20 20 19 19 19 20 22 22 22 23 23 23 24 26 27 27 27 26 27 29 31 31 32 28 20 20 25 24 21 23 24 25 26 27 27 26 25 25 24 21 19 17 14 12 13 16 17 18 20 20
1 1 1 0 0 1 2 7 8 6 4 1 3 0 2 1 6 9 8 7 8 7 5 4 2 2 4 5 5 5 7 8 11 15 16 16 16 16 16 18 18 18 20 20 21 22 23 23 23 24 25 24 24 25 25 28 29 28 28 27 20 19 25 25 21 23 28 30 28 26 25 26 26 25 24 21 18 16 13 11 13 16 17 19 20 20
1 1 0 0 1 1 3 6 5 3 1 3 3 3 3 2 3 5 4 4 6 8 7 4 2 3 3 4 5 6 7 7 8 13 17 18 17 16 17 16 16 16 17 18 19 20 21 23 23 23 24 23 24 25 25 26 29 29 29 28 23 23 29 32 25 24 31 35 31 25 24 27 28 26 24 20 18 16 14 12 13 16 19 21 21 20
1 1 1 1 0 1 3 3 2 1 2 3 3 3 2 1 3 4 4 5 4 6 6 3 2 4 4 4 6 7 7 5 3 7 15 19 18 18 18 15 13 13 14 15 15 16 17 19 20 22 23 23 24 26 26 25 27 30 32 32 29 26 30 33 29 25 30 36 31 24 23 26 28 26 24 21 18 16 14 13 15 18 20 22 22 20
0 1 2 1 1 0 2 4 3 2 3 2 2 2 2 1 2 2 4 4 3 4 7 5 4 7 6 6 9 10 7 4 1 3 12 17 17 18 17 14 12 12 12 13 13 14 16 16 18 20 22 22 23 25 26 25 25 25 28 31 33 31 31 33 31 27 30 37 35 27 24 25 27 26 25 21 17 15 14 14 17 19 20 21 20 19
2 1 1 1 1 2 2 3 3 2 2 1 2 1 1 2 3 3 4 5 2 3 7 7 5 8 9 8 11 10 5 2 1 2 9 14 15 17 16 14 12 11 10 10 9 10 13 14 16 18 19 20 22 23 23 24 25 26 26 27 30 32 31 31 31 29 30 38 39 32 26 24 24 25 24 21 17 16 15 15 19 20 19 20 19 18
2 2 1 2 2 1 1 2 2 1 0 1 2 2 2 2 4 5 6 5 2 2 7 8 7 9 11 11 10 7 3 1 2 4 10 14 15 16 15 12 11 10 9 8 8 7 9 12 15 16 17 18 21 22 21 20 22 26 26 25 27 30 31 31 32 31 32 35 35 33 29 24 20 21 22 20 17 16 16 17 21 21 20 20 19 17
0 1 1 2 1 2 1 2 2 0 0 0 3 5 2 3 5 5 5 2 0 2 6 8 9 13 16 14 8 4 1 3 4 7 12 15 16 15 14 12 9 8 7 7 7 7 8 10 12 13 15 16 17 21 23 22 21 23 25 26 28 30 30 30 31 32 32 31 31 32 30 23 19 21 22 20 17 17 18 21 23 21 20 20 18 16
1 1 1 1 1 1 1 2 2 1 1 2 5 5 1 3 4 2 2 4 4 4 3 6 9 13 18 16 7 3 2 6 6 8 13 14 14 14 13 12 10 8 7 6 6 6 7 9 10 11 14 15 15 18 22 24 22 23 28 31 31 29 28 27 28 30 30 29 31 31 27 22 23 23 21 19 18 19 21 24 23 21 20 19 18 17
1 1 1 1 1 1 2 2 2 3 2 4 5 2 1 0 1 3 6 6 5 4 4 5 7 11 18 16 6 2 3 6 6 7 11 13 13 12 12 11 9 7 6 4 3 4 5 6 7 8 10 13 14 14 17 21 22 22 26 29 28 26 27 27 27 29 29 30 32 30 23 23 25 21 17 17 20 21 22 24 23 22 20 19 19 17
1 1 1 1 1 0 1 2 1 1 2 5 4 1 1 2 4 5 5 5 5 5 4 3 4 10 18 16 7 3 3 5 6 8 10 12 13 11 10 9 7 5 5 3 2 3 3 3 4 5 6 8 11 13 15 17 17 18 23 26 23 21 22 24 25 28 29 30 31 28 24 25 24 20 16 18 21 22 23 24 23 22 22 21 20 18
1 1 1 1 1 0 1 2 1 1 4 5 3 3 3 2 2 2 3 4 6 5 4 3 2 9 17 17 9 2 3 5 7 8 9 10 11 11 9 8 6 4 3 2 2 2 1 2 2 3 4 7 9 13 17 16 15 16 21 24 21 19 20 22 24 26 28 30 31 29 27 26 23 19 17 20 21 23 25 25 23 23 23 22 20 18
1 2 2 1 2 1 2 3 2 3 6 6 5 6 6 4 4 4 3 3 5 5 4 4 5 9 14 15 8 2 4 5 6 8 9 10 11 11 9 8 6 5 3 2 2 2 2 1 2 2 4 7 9 11 15 16 16 17 18 19 18 17 19 23 25 25 27 30 32 31 28 25 22 20 19 19 19 21 23 23 23 23 23 23 21 19
1 2 1 2 2 1 2 3 3 3 6 8 8 10 10 9 9 9 10 10 9 9 8 9 10 9 11 13 7 3 5 6 6 8 10 12 12 12 11 9 7 6 4 3 3 3 3 3 2 2 3 6 7 7 10 13 15 16 17 17 16 15 16 20 24 25 27 29 30 28 25 23 21 20 19 18 19 21 22 22 22 22 22 22 21 19
2 3 2 3 2 2 2 1 2 4 7 10 11 12 11 12 13 14 14 14 13 13 14 13 12 11 10 11 5 3 5 7 8 9 12 14 14 14 13 11 9 7 6 5 5 5 6 6 4 3 3 3 4 4 5 8 11 14 15 16 15 13 14 18 22 25 27 27 27 26 24 21 19 17 17 19 20 21 22 22 21 21 20 19 18 16
4 4 2 2 3 4 3 2 2 5 8 10 13 13 11 13 16 16 17 17 16 17 18 16 15 12 9 8 3 4 5 10 11 11 14 16 16 15 14 12 10 9 8 7 7 7 8 8 6 3 1 2 3 4 5 6 7 10 11 12 12 12 12 14 19 23 25 25 25 24 22 19 17 17 17 18 18 19 20 20 19 19 19 18 15 12
2 1 0 2 4 4 2 2 3 4 4 6 9 13 13 15 18 18 18 20 20 20 19 19 18 16 14 12 10 9 9 13 14 13 15 18 18 16 15 13 12 11 10 9 9 8 8 6 5 3 2 1 2 5 6 5 6 7 8 10 10 11 11 12 16 20 23 23 23 23 21 19 18 18 18 18 18 20 21 21 20 20 20 18 17 13
1 1 1 1 2 2 3 5 6 6 4 4 8 14 16 17 19 20 20 21 21 21 20 19 18 18 17 17 16 15 15 17 17 16 16 18 18 17 16 16 15 14 13 11 10 10 9 7 6 5 4 3 2 3 2 1 3 5 6 7 9 10 10 11 14 18 21 22 22 22 20 18 18 18 18 18 19 21 21 21 22 22 20 19 19 15
Wind_Direction
177 180 194 200 192 176 171 174 148 79 148 150 163 171 171 188 189 188 193 183 185 190 200 193 201 223 207 166 191 194 196 207 212 212 212 213 217 217 219 222 222 224 226 223 221 224 225 225 227 228 225 220 216 217 217 218 218 213 212 212 210 207 204 203 203 202 202 201 198 193 189 186 185 191 197 194 192 191 194 209 231 244 260 275 285 295
183 206 207 188 155 147 158 168 135 109 156 152 168 176 176 196 183 173 194 181 180 199 200 187 206 225 210 168 190 190 191 205 207 207 211 213 217 220 223 226 226 228 228 225 225 227 228 226 226 228 225 220 216 217 216 217 215 209 209 211 208 204 201 200 200 201 203 201 197 195 191 187 188 195 199 197 197 196 203 225 235 243 262 276 283 292
196 217 187 144 134 143 157 171 149 123 158 161 172 177 176 184 151 155 200 166 172 204 198 175 208 225 198 134 186 192 195 206 205 205 207 208 212 217 222 225 227 230 229 226 224 227 231 228 225 227 226 221 218 218 217 215 213 209 208 209 206 199 197 199 196 197 200 195 193 197 194 189 193 197 196 198 205 211 222 236 236 240 252 262 272 284
201 205 154 138 149 151 158 174 164 125 149 162 169 177 175 167 158 166 173 147 157 207 191 167 204 229 166 111 211 210 208 210 209 213 217 217 218 220 222 225 227 229 229 227 221 222 230 229 225 226 225 222 218 217 217 215 213 210 210 210 203 196 198 197 192 196 199 191 191 196 195 195 198 196 194 199 212 222 229 234 230 231 240 249 263 279
190 151 144 145 155 157 161 174 177 163 152 162 182 178 162 162 183 155 131 140 135 116 133 149 196 240 189 180 209 218 217 219 218 221 227 228 228 229 231 232 231 231 231 228 220 217 225 227 224 224 225 223 216 216 218 217 215 212 212 212 203 196 199 193 190 200 197 187 190 195 196 198 194 192 200 206 214 221 223 224 223 223 232 245 260 279
186 140 153 155 159 162 163 175 184 180 161 165 214 203 157 154 165 113 110 154 167 188 173 161 213 221 185 202 195 170 202 219 220 223 228 227 226 229 232 232 233 234 234 231 222 216 221 223 222 223 225 224 218 215 218 218 218 216 213 214 205 197 199 192 188 194 187 185 193 196 196 195 189 193 206 214 222 227 223 218 219 223 229 242 261 284
183 162 168 164 158 162 168 177 184 182 170 168 191 194 159 134 139 126 136 172 184 190 142 222 227 210 168 209 192 168 195 214 216 223 230 226 222 224 227 229 229 231 232 231 223 218 223 222 221 222 223 224 221 216 218 220 221 219 214 214 207 199 201 194 185 185 184 187 193 192 193 194 193 202 214 220 224 226 222 216 219 225 228 241 267 293
178 177 182 172 160 165 177 176 179 184 179 165 159 167 163 138 134 124 127 166 190 150 114 193 227 232 221 200 144 172 197 215 216 225 231 224 222 223 225 228 226 227 230 228 221 219 225 226 223 221 220 224 225 221 219 220 222 222 218 215 207 199 201 198 189 187 189 192 193 189 189 194 200 213 223 220 213 211 214 216 222 225 229 247 275 302
176 183 179 175 172 175 176 156 164 180 179 162 152 158 161 151 139 121 128 136 43 216 200 174 170 221 228 164 94 168 200 224 222 225 228 223 223 224 227 229 228 230 230 226 221 217 221 225 223 220 220 224 227 224 222 222 222 224 222 218 208 196 197 201 197 194 194 196 197 193 190 194 202 210 214 210 205 205 209 217 222 223 233 256 285 315
181 190 176 176 182 173 153 140 158 177 180 140 135 131 126 132 138 137 247 159 61 238 209 169 170 217 230 168 145 172 210 227 224 226 227 223 223 223 224 226 226 227 226 224 220 215 218 224 225 223 221 223 226 225 224 225 224 224 224 219 207 194 193 202 205 201 196 193 196 198 194 197 203 201 200 201 203 206 215 227 227 227 243 261 293 316
168 184 178 178 181 157 143 146 164 176 165 134 139 129 109 106 129 147 325 337 224 240 207 169 174 219 236 190 167 190 212 214 213 225 225 222 221 220 221 221 219 218 218 217 218 218 220 224 227 226 219 217 222 224 223 226 227 227 225 211 199 193 189 200 209 203 193 187 189 196 196 199 205 200 197 201 201 199 214 236 235 233 247 267 298 310
137 169 175 169 169 157 140 151 170 173 158 151 160 157 142 134 125 147 134 211 221 226 188 173 177 203 229 216 178 205 214 205 211 221 219 216 215 215 216 214 211 211 210 210 216 218 216 218 222 220 213 211 218 223 222 224 228 228 219 202 197 197 190 199 210 201 189 186 187 191 192 196 205 203 201 205 202 198 213 236 238 238 249 276 302 307
170 161 165 159 171 174 156 151 171 172 170 174 169 166 173 169 165 186 190 194 213 217 57 165 177 199 238 247 239 234 233 225 224 226 226 222 213 207 205 201 200 203 204 208 214 214 212 215 215 211 208 208 216 223 221 223 227 222 211 209 210 205 196 201 208 201 192 189 186 187 187 189 200 205 207 206 201 206 223 237 238 237 251 282 299 308
160 151 180 169 172 184 178 166 173 177 182 184 175 177 184 173 175 192 190 179 193 189 47 101 175 208 253 243 232 232 236 232 228 234 236 233 218 201 193 191 193 196 200 206 209 210 213 216 215 211 208 210 216 222 223 223 223 214 210 215 214 210 205 203 207 204 197 191 185 184 186 190 201 206 207 205 197 205 223 231 231 231 249 276 291 306
164 157 185 182 167 179 187 184 162 150 167 182 172 178 184 177 184 186 177 173 161 149 129 130 184 201 202 197 208 228 255 254 239 243 242 235 220 200 188 185 189 193 197 201 205 210 214 215 215 212 208 211 215 220 223 222 216 212 211 210 210 212 206 200 207 205 198 192 185 185 194 201 208 209 206 203 198 201 212 219 224 230 248 267 281 299
173 139 163 181 176 175 182 178 129 140 162 184 145 171 192 185 153 117 120 155 131 138 156 177 217 221 231 266 221 229 265 254 243 243 229 216 195 180 181 182 186 193 195 199 206 210 213 214 213 209 205 208 213 217 220 219 214 211 208 203 205 207 198 199 208 205 198 196 188 192 209 211 209 206 200 202 200 194 198 211 219 232 247 258 278 297
176 118 150 177 201 189 177 159 164 170 164 161 176 182 176 119 115 121 113 44 90 208 182 161 219 234 262 271 175 175 231 216 219 217 201 192 176 174 182 182 185 192 194 199 207 209 211 211 208 206 202 201 205 213 219 220 217 208 201 202 203 197 191 195 201 200 200 197 191 202 218 216 208 199 193 201 202 191 191 205 216 229 242 251 280 298
175 123 161 182 185 191 177 167 188 196 149 151 186 174 113 70 54 125 156 135 179 210 193 155 213 219 229 243 125 138 224 219 197 188 182 176 177 183 185 181 185 191 193 199 205 207 206 202 201 204 205 202 204 212 217 217 216 207 198 197 192 184 189 193 192 196 199 197 200 211 217 215 205 194 193 198 196 189 194 207 218 228 237 251 282 292
200 135 160 192 180 170 176 175 191 210 186 177 172 148 134 189 199 169 163 167 173 193 195 178 216 231 213 224 235 193 212 221 193 176 184 185 188 191 184 180 185 188 192 196 199 200 197 193 198 203 206 207 208 210 210 205 206 206 196 188 180 178 191 197 193 194 196 197 206 215 215 211 201 195 197 194 187 187 198 211 222 228 232 252 280 279
218 154 152 199 184 152 170 189 191 190 194 178 162 160 199 209 183 181 176 173 177 179 177 176 198 235 212 224 249 237 218 205 181 183 198 197 194 192 181 179 185 188 190 193 195 196 193 193 200 205 205 205 205 207 206 198 198 203 197 192 189 184 190 201 201 197 194 196 204 209 209 206 203 200 197 190 184 188 200 212 221 224 226 251 275 261
226 208 151 173 167 157 182 202 193 180 169 176 181 178 180 152 146 193 179 82 189 175 175 184 195 227 213 206 238 243 226 185 191 195 204 200 193 190 181 181 186 188 190 192 192 193 192 196 202 204 203 203 202 203 201 196 196 201 203 203 200 188 189 201 206 201 196 195 200 203 204 203 202 199 191 185 184 189 202 213 218 217 221 246 269 249
191 207 154 158 169 178 182 172 172 176 173 180 186 178 177 164 155 185 190 179 322 140 166 186 216 230 212 191 235 246 130 184 204 196 191 189 188 190 188 187 188 189 190 192 192 191 191 197 201 201 203 203 200 197 197 199 203 208 211 210 202 192 195 202 204 203 198 194 197 200 203 202 195 190 186 182 184 192 206 215 213 214 228 251 262 232
183 154 141 148 163 168 146 146 166 171 168 175 188 181 180 179 178 190 192 170 163 141 108 148 272 245 149 75 270 276 322 232 211 189 181 176 181 187 187 188 188 188 190 191 192 191 192 198 200 199 203 203 195 191 195 201 209 214 216 213 204 195 199 204 204 202 196 193 196 200 204 200 189 186 186 183 187 196 207 214 212 215 236 255 251 220
186 165 126 123 130 121 85 126 162 164 162 179 198 189 183 188 189 188 183 170 192 194 159 192 244 241 67 16 294 268 270 260 207 186 179 170 177 184 182 183 184 185 189 190 191 194 196 199 199 200 205 204 195 192 195 198 207 215 218 217 208 198 201 206 204 201 198 196 197 199 203 199 189 188 188 186 193 202 207 213 213 217 236 247 234 219
188 252 143 140 151 149 111 132 169 177 183 190 189 182 183 179 157 149 136 166 204 208 172 205 237 217 100 1 331 119 145 175 190 191 184 173 175 180 179 179 179 184 190 190 191 196 197 197 199 201 205 203 195 193 195 195 201 211 217 218 214 205 204 206 204 201 201 200 198 199 200 198 192 191 191 190 195 203 208 211 214 220 233 238 225 216
165 242 159 158 170 168 160 168 177 176 183 184 166 171 183 181 171 164 141 172 199 185 156 216 241 260 255 146 84 90 118 140 169 188 189 181 175 176 176 175 178 186 190 190 192 196 196 198 199 197 196 196 193 192 194 195 199 207 215 219 218 213 208 207 206 203 202 202 201 199 198 197 195 193 192 194 197 203 208 212 215 221 228 230 221 214
131 212 205 196 190 176 158 121 110 137 167 175 162 168 183 185 176 157 143 184 185 140 171 222 246 299 288 273 90 99 141 150 171 182 186 182 174 173 174 175 180 186 190 189 191 196 198 200 200 195 192 192 193 193 193 195 198 204 211 216 220 220 213 211 210 206 205 203 199 198 198 198 197 195 194 196 199 203 208 212 216 221 226 226 218 213
4 294 184 196 219 210 177 85 134 154 167 169 160 167 181 180 175 180 180 173 147 142 198 226 179 249 268 276 24 155 181 173 184 185 181 175 172 173 175 178 181 186 189 190 190 194 199 201 199 195 193 194 196 196 194 194 199 204 209 213 218 221 216 212 210 207 207 203 195 196 200 199 198 197 195 197 200 204 208 213 217 221 225 224 215 212
258 307 198 177 242 246 246 267 180 166 164 167 172 178 181 176 181 199 200 165 164 180 225 214 167 217 253 262 71 224 206 188 179 174 170 168 171 175 177 181 184 186 188 190 192 195 199 201 199 195 195 197 201 201 198 198 202 205 207 210 216 221 218 212 206 203 207 205 195 195 200 200 197 195 196 199 202 204 207 212 219 222 222 220 214 208
217 261 207 197 265 266 227 221 201 171 162 169 181 184 183 179 183 199 199 168 192 234 1 80 203 243 264 263 107 265 218 179 160 157 161 166 172 176 180 185 187 187 187 189 192 196 200 203 203 200 197 197 199 202 203 205 207 207 208 210 213 214 214 213 205 201 205 205 199 198 200 199 195 194 197 201 201 201 206 214 220 222 221 218 212 207
207 215 157 178 300 312 179 164 174 179 170 169 180 186 185 183 185 198 196 145 204 257 103 99 256 266 276 292 328 289 194 165 157 160 165 170 175 178 184 189 188 187 188 189 191 194 197 202 205 204 201 198 197 201 206 209 212 211 210 210 210 209 211 213 207 201 203 204 203 204 202 198 196 195 196 199 199 200 208 218 223 222 219 215 210 206
211 229 106 349 302 7 93 154 159 165 172 175 185 189 184 182 186 196 187 156 198 220 159 148 254 259 249 319 291 213 181 173 168 169 171 174 179 184 188 189 188 188 188 189 191 193 194 198 202 204 204 200 195 197 204 209 210 211 211 212 216 214 212 211 206 201 203 205 205 205 201 199 198 196 196 198 200 204 214 223 224 218 213 210 208 205
174 248 14 340 303 14 27 145 136 126 154 190 199 191 181 179 179 174 172 195 205 200 170 198 238 266 98 162 193 185 189 194 185 179 179 180 185 190 190 187 187 189 189 189 191 193 193 195 200 204 206 204 197 195 203 207 205 206 209 214 223 222 211 206 204 202 204 207 207 205 201 200 200 198 197 199 201 209 221 227 222 213 206 204 205 204
75 294 303 313 300 347 62 122 126 137 177 196 231 194 179 175 175 174 187 210 204 195 217 245 266 348 166 196 203 195 195 201 193 188 188 188 189 192 190 188 189 190 190 191 192 193 194 194 197 203 207 209 206 202 206 210 209 209 209 211 219 222 211 204 204 207 208 207 207 205 202 201 203 203 201 201 204 215 229 229 216 207 201 201 203 201
22 53 256 215 345 337 107 128 138 163 190 2 7 185 153 157 189 186 194 211 201 203 243 268 254 229 219 225 235 211 195 200 198 195 198 198 193 189 187 188 190 189 189 191 192 194 197 196 196 201 205 209 210 207 207 210 211 213 213 212 214 218 214 212 215 217 212 205 205 210 209 206 206 205 202 202 207 220 233 228 209 201 198 199 199 198
300 71 238 222 90 134 147 143 148 158 84 30 57 107 93 67 174 180 200 224 207 206 220 233 220 208 214 236 235 203 184 189 198 203 208 209 203 196 194 193 194 194 193 193 192 194 197 199 201 203 204 207 208 208 209 209 210 213 214 215 218 222 220 218 218 219 213 204 201 208 213 210 207 204 202 206 214 226 237 230 208 198 197 196 195 196
207 130 266 290 91 160 145 124 111 122 126 100 91 110 122 142 159 170 203 215 198 193 197 192 177 186 202 224 206 179 162 150 159 217 216 213 209 206 204 204 205 205 201 197 195 195 195 197 201 204 206 207 206 207 210 211 212 214 215 216 217 219 218 216 215 216 213 205 202 209 213 210 209 207 205 211 220 232 242 234 211 200 197 196 194 194
149 262 258 300 331 234 137 121 123 142 142 138 154 144 139 226 215 197 210 201 167 174 185 185 180 179 190 205 186 171 158 135 73 239 212 207 209 206 203 206 209 207 204 200 199 203 202 199 201 208 211 209 207 208 210 213 214 214 217 219 218 215 214 214 215 217 213 207 207 211 210 208 211 212 210 212 220 234 243 230 208 198 197 197 196 197
109 71 131 151 278 249 165 133 135 134 109 166 203 143 31 240 203 181 203 200 160 154 181 189 186 176 186 197 184 171 162 138 90 186 182 184 193 196 195 197 197 197 199 198 198 206 209 207 206 210 213 213 212 211 212 216 218 218 219 222 221 219 217 215 217 222 219 212 207 205 203 206 212 214 212 211 219 236 241 219 198 193 195 196 197 201
139 76 131 199 221 192 144 99 107 118 75 191 241 322 330 200 171 176 198 191 133 154 185 192 189 179 188 197 191 188 192 132 114 144 156 163 174 184 188 187 187 188 187 186 185 189 201 208 210 212 213 214 215 217 216 216 219 223 225 226 225 225 224 223 223 225 222 216 210 205 203 204 209 215 216 216 224 234 227 203 192 192 194 195 196 201
267 56 201 215 163 133 145 99 97 127 91 262 306 321 320 168 169 184 190 160 40 220 198 198 199 192 191 191 197 225 270 81 107 139 151 160 167 172 178 184 186 186 182 182 181 177 187 202 211 215 216 215 216 218 220 220 221 227 231 231 230 230 230 230 231 227 220 217 215 209 202 201 209 219 218 216 222 223 207 193 191 192 193 193 193 197
227 157 172 178 120 132 142 92 93 134 113 348 320 323 320 166 168 181 325 329 290 264 239 216 212 205 196 190 195 229 142 84 92 133 144 152 160 161 170 182 185 183 180 175 175 177 186 199 207 212 215 219 220 219 221 223 226 234 235 229 227 230 231 232 233 226 216 213 212 206 202 209 217 214 205 205 213 211 198 191 192 195 196 194 193 197
241 186 148 161 146 114 97 94 118 140 96 349 332 342 59 106 252 299 316 314 295 289 286 248 224 206 196 189 182 187 145 79 73 125 141 147 156 161 170 180 181 182 179 168 168 179 180 189 204 211 216 222 226 225 225 224 228 237 237 226 219 221 223 225 225 220 213 210 208 205 210 221 214 193 183 201 209 203 195 192 191 194 196 194 193 197
243 221 192 176 185 154 100 97 93 102 16 345 341 50 62 328 310 295 295 311 321 324 318 287 233 197 189 186 176 144 119 77 84 124 141 147 154 158 164 171 172 172 174 168 163 173 166 167 190 207 218 226 230 231 230 226 229 235 233 226 224 225 226 226 223 219 215 211 207 209 218 219 202 178 179 205 206 197 194 194 192 193 193 192 193 197
330 264 256 113 143 245 70 77 48 356 358 358 11 33 15 354 336 305 278 301 325 340 0 359 202 181 179 182 182 135 79 73 92 120 136 142 145 146 148 155 157 150 153 153 131 133 143 141 157 187 211 222 228 229 228 228 231 231 228 229 232 231 231 231 226 220 216 211 210 215 215 205 191 182 193 205 204 198 196 193 192 192 192 192 195 197
323 266 257 119 145 178 62 55 30 7 12 21 49 56 46 58 66 54 45 12 6 21 45 70 122 158 171 177 177 103 62 72 89 114 126 126 127 128 127 131 130 114 97 72 59 67 81 100 115 163 210 220 223 225 226 229 232 231 230 234 233 223 223 228 225 220 217 213 214 216 208 195 189 193 200 205 206 203 199 195 194 195 194 194 197 200
307 284 247 118 126 145 92 45 9 17 19 27 59 68 58 61 68 66 65 60 54 58 69 88 107 128 157 166 159 74 59 70 82 109 119 118 120 120 115 112 107 95 81 55 37 45 60 72 110 155 206 222 220 220 226 230 231 231 233 236 231 216 210 215 217 218 218 216 215 211 202 196 198 199 201 205 204 200 198 197 198 200 198 198 199 201
314 329 1 94 70 46 103 87 55 75 56 47 62 66 55 59 67 68 68 68 70 75 77 86 98 111 140 161 159 33 52 70 80 106 116 116 117 113 106 101 95 85 78 63 55 63 69 73 97 144 182 194 177 173 203 223 231 235 235 234 229 218 205 198 200 207 214 216 213 207 201 202 203 202 206 208 201 195 196 196 198 201 201 201 202 202
301 321 350 103 100 89 103 146 158 102 66 51 58 62 61 69 74 75 76 75 78 81 82 85 91 98 120 139 108 33 74 89 91 105 113 110 107 103 99 97 94 90 87 82 81 82 77 74 80 99 154 174 160 160 177 205 229 236 235 231 227 224 212 190 184 195 207 209 208 206 204 203 201 203 211 211 200 193 195 197 200 201 199 199 203 206
325 2 59 130 130 122 127 192 188 130 76 47 53 60 68 76 77 76 76 74 73 77 79 83 86 88 92 92 73 60 85 98 98 103 104 100 97 96 96 97 99 98 94 90 93 96 94 88 80 71 72 124 192 193 191 204 223 227 226 224 218 216 211 193 182 191 201 203 204 206 206 202 200 203 211 212 201 193 194 199 203 202 201 204 206 206
337 217 255 164 120 117 154 160 144 114 96 79 69 71 74 76 75 73 72 71 73 75 78 81 85 84 84 83 77 72 78 86 86 86 88 92 95 97 98 99 99 97 91 86 86 92 98 98 91 86 87 95 134 168 173 230 235 219 210 209 206 205 203 193 187 193 199 203 206 208 205 202 201 201 205 206 201 195 195 199 203 203 205 211 213 211